Location: Dilsberg
(49.3983°N, 8.8354°E)
Time: 09:42:28
(UTC+00:00)

Terra - Pass Details

Date: 19 May 2025
Orbit: 690 x 691 km, 98.0° (Epoch: 24 June)

Event Time Altitude Azimuth Distance (km) Brightness Sun altitude
Exits shadow 20:50:11 - 193° (SSW) 2,417 4.2 -13.0°
Reaches altitude 10° 20:50:56 10° 196° (SSW) 2,139 4.0 -13.0°
Maximum altitude 20:55:15 36° 263° (W) 1,086 3.1 -13.4°
Drops below altitude 10° 20:59:37 10° 331° (NNW) 2,155 5.8 -13.8°
Sets 21:02:02 0° 340° (NNW) 3,076 6.8 -14.1°
